Location: Auttagershofen
(48.1940°N, 10.0237°E)
Time: 22:57:40
(UTC+00:00)

Lacrosse 5 rocket - Pass Details

Date: 19 April 2026
Orbit: 390 x 471 km, 57.0° (Epoch: 19 May)

Event Time Altitude Azimuth Distance (km) Brightness Sun altitude
Rises 19:08:31 0° 280° (W) 2,298 6.1 -8.8°
Reaches altitude 10° 19:10:59 10° 299° (WNW) 1,435 5.2 -9.2°
Maximum altitude 19:13:22 19° 348° (NNW) 1,007 3.2 -9.5°
Drops below altitude 10° 19:15:46 10° 37° (NE) 1,431 3.4 -9.9°
Sets 19:18:13 0° 56° (NE) 2,291 4.2 -10.2°
